Weather in Lyubimovo

Russia / Saratov Oblast     51°26′19″N   47°06′06″E
temp.,
°C
wind,
m/s
gust,
m/s
humid.,
%
clouds,
%
prec.,
mm/h
press.,
hPa
HPBL,
m
25 july, sun
sun2501:00+19n245497 0.0 101499
04:00+15nne33725 0.0 101641
07:00+17nne34680 0.0 1018209
10:00+22nne44500 0.0 1019995
13:00+24n44370 0.0 10192090
16:00+25n433250 0.0 10192616
19:00+23ne554119 0.0 1020618
22:00+18ne34566 0.0 102150
26 july, mon
mon2601:00+17nne22548 0.0 102231
04:00+15ne22625 0.0 102319
07:00+17ne23525 0.0 1024114
10:00+22ne32366 0.0 1024775
13:00+25n342834 0.0 10242476
16:00+25nnw343077 0.0 10222346
19:00+24n333460 0.0 10221964
22:00+19ne354459 0.0 102377
27 july, tue
tue2701:00+17ne11510 0.0 102311
04:00+15nnw22560 0.0 102310
07:00+18wnw11515 0.0 102372
10:00+23nw34385 0.0 1022828
13:00+26nw452923 0.0 10212600
16:00+27nnw352998 0.0 10192863
19:00+25nnw463812 0.0 1019496
22:00+19nw22535 0.0 101914
28 july, wed
wed2801:00+18nw33551 0.0 101927
04:00+17nw33603 0.0 101938
07:00+19nw34595 0.0 1019130
10:00+25nw34425 0.0 1018708
13:00+28nw463397 0.0 10172788
16:00+29nnw463095 0.0 10163003
19:00+27nne233717 0.0 1016418
22:00+23nnw1145100 0.0 101511
29 july, thu
thu2901:00+21ssw225190 0.0 101411
04:00+20ssw3354100 0.0 101435
07:00+21ssw3652100 0.0 1013158
10:00+23wsw1247100 0.0 1013189
13:00+25wsw2342100 0.0 1012291
16:00+25sw51039100 0.0 1011780
19:00+25sw6115141 0.0 10101056
22:00+21sw5116933 0.3 1009305